Tracking 32964 objects as of 20-Jan-2026
HD Live streaming from Space Station
objects crossing your sky now

THOR ABLESTAR DEB

Track THOR ABLESTAR DEB now!
10-day predictions


NORAD ID: 357
Int'l Code: 1961-015DX
Perigee: 857.2 km
Apogee: 881.0 km
Inclination: 66.8 °
Period: 102.2 minutes
Semi major axis: 7240 km
RCS: 0.059 m2 (small)
Launch date: June 29, 1961
Source: United States (US)
Launch site: AIR FORCE EASTERN TEST RANGE (AFETR)

Note: This is SATELLITE DEBRIS
Your satellite tracking list
Your tracking list is empty




NASA's NSSDC Master Catalog

Two Line Element Set (TLE):
1 00357U 61015DX  26020.04983251  .00001301  00000-0  79217-3 0  9994
2 00357  66.8074 259.1103 0016430 294.2969  65.6403 14.09242803274981
Source of the keplerian elements: AFSPC